Location: Niedergestelen
(46.3129°N, 7.7822°E)
Time: 19:50:11
(UTC+00:00)

ISS - Visible Passes

Search period start: 24 September 2021 00:00
Search period end: 04 October 2021 00:00
Orbit: 419 x 423 km, 51.6° (Epoch: 24 September)

Date Brightness Start Highest point End Pass type
(mag) Time Alt. Az. Time Alt. Az. Time Alt. Az.
24 Sep -2.3 19:01:23 10° WNW 19:04:27 31° N 19:05:32 25° NE visible
24 Sep -0.1 20:38:28 10° WNW 20:38:31 10° WNW 20:38:31 10° WNW visible
25 Sep -2.4 18:14:18 10° WNW 18:17:24 33° N 18:20:21 11° ENE visible
25 Sep -1.5 19:51:34 10° WNW 19:53:21 25° NW 19:53:21 25° NW visible
26 Sep -2.6 19:04:36 10° WNW 19:07:44 34° N 19:08:10 33° NNE visible
27 Sep -2.4 18:17:36 10° WNW 18:20:41 32° N 18:22:59 15° ENE visible
27 Sep -1.3 19:54:33 10° WNW 19:55:58 23° NW 19:55:58 23° NW visible
28 Sep -3.2 19:07:39 10° WNW 19:10:48 49° N 19:10:48 49° N visible
29 Sep -2.9 18:20:42 10° WNW 18:23:55 40° NNE 18:25:39 22° ENE visible
29 Sep -1.0 19:57:34 10° WNW 19:58:38 19° WNW 19:58:38 19° WNW visible
30 Sep -3.4 19:10:36 10° WNW 19:13:31 64° WNW 19:13:31 64° WNW visible
01 Oct -3.7 18:23:39 10° WNW 18:27:02 68° NNE 18:28:27 31° E visible
01 Oct -0.6 20:00:54 10° W 20:01:27 13° W 20:01:27 13° W visible
02 Oct -3.3 17:36:44 10° WNW 17:40:02 50° NNE 17:43:20 10° E visible
02 Oct -2.4 19:13:42 10° WNW 19:16:27 34° SW 19:16:27 34° SW visible
03 Oct -3.2 18:26:39 10° WNW 18:29:57 54° SSW 18:31:31 27° SSE visible
